Terminal Aerodrome Forecast
Issued by NWS

Home | Current Version | Previous Version | Text Only | Print | Product List | Glossary On
Versions: 1 2 3 4 5 6 7 8 9 10 11 12 13 14 15 16 17 18 19 20 21 22 23 24 25 26 27 28 29 30 31 32 33 34 35 36 37 38 39 40 41 42 43 44 45 46 47 48 49 50
011
FTUS41 KCTP 050552
TAFJST
TAF
KJST 050552Z 0506/0606 16012G18KT 3SM -FZRA BR OVC006
     FM050800 14007KT 1SM -RASN BR OVC008
     FM051100 22007KT 2SM BR VCSH OVC010
     FM051300 27012G18KT 5SM BR OVC025
     FM051900 29012KT P6SM OVC030
     FM060000 28005KT P6SM OVC040=

USA.gov is the U.S. government's official web portal to all federal, state and local government web resources and services.